IR3UDX Weather Reports


Display with metric or nautical units.
time (UTC)temp
F
wind
direction
speed
MPH
gust
MPH
rain 1hr
in
rain 24hr
in
rain mn
in
humidity
%
barometer
mb
20191017001526 51 176 0.0 0.0 0.00 0.00 0.00 100 1020.8
20191017000525 51 176 0.0 0.0 0.00 0.00 0.00 100 1020.8
20191017000025 51 176 0.0 0.0 0.00 0.00 0.00 100 1020.8
20191016235525 51 176 0.0 0.0 0.00 0.00 0.00 100 1020.8
20191016235024 51 176 0.0 0.0 0.00 0.00 0.00 100 1020.8
20191016234526 51 176 1.0 1.0 0.00 0.00 0.00 100 1020.5
20191016234025 51 176 0.0 2.0 0.00 0.00 0.00 100 1020.5
20191016233023 51 216 0.0 0.0 0.00 0.00 0.00 100 1020.6
20191016232523 51 216 0.0 0.0 0.00 0.00 0.00 100 1020.6
20191016232023 51 216 0.0 1.0 0.00 0.00 0.00 100 1020.6
20191016231522 51 216 1.0 2.0 0.00 0.00 0.00 100 1020.6
20191016231022 51 216 0.0 2.0 0.00 0.00 0.00 100 1020.6
20191016230522 51 138 0.0 0.0 0.00 0.00 0.00 100 1020.6
20191016230021 51 138 0.0 0.0 0.00 0.00 0.00 100 1020.5
20191016225521 51 138 1.0 1.0 0.00 0.00 0.00 100 1020.5
20191016225021 52 138 1.0 4.0 0.00 0.00 0.00 100 1020.5
20191016224521 52 256 0.0 0.0 0.00 0.02 0.00 100 1020.5
20191016224020 52 256 0.0 1.0 0.00 0.02 0.00 100 1020.5
20191016223520 52 256 0.0 0.0 0.00 0.02 0.00 100 1020.5
20191016223020 52 256 1.0 1.0 0.00 0.02 0.00 100 1020.4
20191016222520 52 256 0.0 2.0 0.00 0.02 0.00 100 1020.4
20191016222019 52 256 0.0 2.0 0.00 0.02 0.00 99 1020.4
20191016221519 52 256 0.0 0.0 0.00 0.02 0.00 99 1020.3
20191016221019 52 256 0.0 0.0 0.00 0.02 0.00 99 1020.3
20191016220518 52 256 1.0 0.0 0.00 0.02 0.00 99 1020.3
20191016215518 52 256 1.0 4.0 0.00 0.02 0.00 99 1020.3
20191016214517 52 256 0.0 0.0 0.00 0.06 0.00 99 1020.3
20191016214017 53 256 0.0 0.0 0.00 0.06 0.00 98 1020.3
20191016213517 53 256 0.0 0.0 0.00 0.06 0.00 98 1020.3
20191016213016 53 256 0.0 0.0 0.00 0.06 0.00 98 1020.2
20191016212516 53 256 0.0 2.0 0.00 0.06 0.00 98 1020.2
20191016212016 53 256 0.0 2.0 0.00 0.06 0.00 97 1020.2
20191016211515 53 256 0.0 0.0 0.00 0.06 0.00 97 1020.1
20191016211015 54 256 0.0 0.0 0.00 0.06 0.00 97 1020.1
20191016210515 54 256 0.0 0.0 0.00 0.06 0.00 97 1020.1
20191016210015 54 256 0.0 0.0 0.00 0.06 0.00 97 1020.1
20191016205514 54 256 0.0 0.0 0.00 0.06 0.00 96 1020.1
20191016205014 54 256 0.0 0.0 0.00 0.06 0.00 96 1020.1
20191016204514 54 256 0.0 0.0 0.00 0.06 0.00 96 1020.0
20191016204014 54 256 0.0 1.0 0.00 0.06 0.00 96 1020.0
20191016203513 54 256 0.0 0.0 0.00 0.06 0.00 96 1020.0
20191016203013 54 256 0.0 0.0 0.00 0.06 0.00 95 1019.8
20191016202513 54 256 0.0 0.0 0.00 0.06 0.00 95 1019.8
20191016202013 54 256 0.0 0.0 0.00 0.06 0.00 94 1019.8
20191016201515 55 256 0.0 0.0 0.00 0.06 0.00 94 1019.5
20191016201012 55 256 0.0 1.0 0.00 0.06 0.00 93 1019.5
20191016200512 55 256 0.0 2.0 0.00 0.06 0.00 93 1019.5
20191016200011 55 256 0.0 0.0 0.00 0.06 0.00 93 1019.2
20191016195512 55 256 1.0 1.0 0.00 0.06 0.00 93 1019.2
20191016194510 56 256 0.0 1.0 0.00 0.06 0.00 92 1019.1
20191016194010 56 256 0.0 1.0 0.00 0.06 0.00 91 1019.1
20191016193510 56 256 0.0 1.0 0.00 0.06 0.00 91 1019.1
20191016192510 56 256 1.0 2.0 0.00 0.06 0.00 90 1019.0
20191016192010 56 256 1.0 2.0 0.00 0.06 0.00 90 1019.0
20191016191509 57 256 0.0 1.0 0.00 0.06 0.00 89 1018.7
20191016190508 57 257 1.0 4.0 0.00 0.06 0.00 88 1018.7
20191016185507 58 17 0.0 1.0 0.00 0.06 0.00 86 1018.7
20191016183506 58 10 1.0 2.0 0.00 0.09 0.09 84 1018.7
20191016183007 58 0 1.0 2.0 0.00 0.09 0.09 84 1018.4
20191016182506 58 0 2.0 6.0 0.00 0.09 0.09 83 1018.4
20191016182006 59 0 2.0 4.0 0.00 0.09 0.09 83 1018.4
20191016181506 59 1 2.0 4.0 0.00 0.09 0.09 83 1018.3
20191016181006 59 47 3.0 6.0 0.00 0.09 0.09 83 1018.3
20191016180505 59 7 2.0 8.0 0.00 0.09 0.09 83 1018.3
20191016180005 59 72 1.0 4.0 0.00 0.09 0.09 83 1018.1
20191016175505 59 287 1.0 4.0 0.00 0.09 0.09 83 1018.1
20191016175005 59 335 0.0 2.0 0.00 0.09 0.09 84 1018.1
20191016174504 59 0 0.0 1.0 0.00 0.17 0.09 83 1018.0
20191016174004 59 0 0.0 1.0 0.00 0.17 0.09 83 1018.0
20191016173503 60 0 1.0 2.0 0.00 0.17 0.09 82 1018.0
20191016173003 60 0 1.0 2.0 0.00 0.17 0.09 82 1017.9
20191016172502 60 0 2.0 6.0 0.00 0.17 0.09 81 1017.9
20191016172002 60 256 1.0 4.0 0.00 0.17 0.09 82 1017.9
20191016171502 60 256 1.0 4.0 0.00 0.17 0.09 81 1017.7
20191016171001 61 44 1.0 2.0 0.00 0.17 0.09 80 1017.7
20191016170501 61 0 1.0 4.0 0.00 0.17 0.09 80 1017.7
20191016170001 61 342 2.0 6.0 0.00 0.17 0.09 79 1017.4
20191016165501 61 285 1.0 4.0 0.00 0.17 0.09 79 1017.4
20191016165000 62 28 1.0 2.0 0.00 0.17 0.09 78 1017.4
20191016164500 62 28 1.0 4.0 0.00 0.50 0.09 77 1017.0
20191016164000 62 42 1.0 2.0 0.00 0.50 0.09 77 1017.0
20191016163459 62 11 2.0 4.0 0.00 0.50 0.09 77 1016.8
20191016162959 63 27 2.0 6.0 0.00 0.50 0.09 76 1016.8
20191016162459 63 41 2.0 4.0 0.00 0.50 0.09 75 1016.8
20191016161959 63 0 2.0 4.0 0.00 0.50 0.09 75 1016.5
20191016161458 64 32 2.0 4.0 0.00 0.50 0.09 74 1016.5
20191016160958 64 14 1.0 6.0 0.00 0.50 0.09 74 1016.5
20191016160458 64 86 1.0 2.0 0.00 0.50 0.09 73 1016.3
20191016155958 65 128 1.0 2.0 0.00 0.50 0.09 74 1016.3
20191016155457 65 130 0.0 2.0 0.00 0.50 0.09 73 1016.3
20191016154957 65 134 0.0 1.0 0.00 0.50 0.09 72 1016.3
20191016154457 65 134 1.0 2.0 0.00 0.87 0.09 71 1016.3
20191016153956 65 134 1.0 2.0 0.00 0.87 0.09 70 1016.3
20191016152956 66 158 2.0 6.0 0.00 0.87 0.09 69 1016.0
20191016152455 66 134 2.0 6.0 0.00 0.87 0.09 67 1016.0
20191016151955 67 148 2.0 6.0 0.00 0.87 0.09 65 1016.0
20191016151456 68 138 2.0 6.0 0.00 0.87 0.09 64 1016.0
20191016150454 68 131 4.0 11.0 0.00 0.87 0.09 66 1015.9
20191016145954 67 20 4.0 7.0 0.00 0.87 0.09 66 1015.9
20191016145454 68 100 5.0 9.0 0.00 0.87 0.09 65 1015.9
20191016144955 68 103 7.0 10.0 0.00 0.87 0.09 63 1015.8
20191016144453 69 49 7.0 13.0 0.00 0.90 0.09 63 1015.8
20191016143953 69 51 7.0 10.0 0.00 0.90 0.09 62 1015.8
20191016143453 70 49 6.0 11.0 0.00 0.90 0.09 59 1015.7
20191016142952 70 4 6.0 10.0 0.00 0.90 0.09 60 1015.7
20191016142452 71 83 4.0 10.0 0.00 0.90 0.09 58 1015.7
20191016141952 72 73 2.0 7.0 0.00 0.90 0.09 55 1015.7
20191016141451 72 38 2.0 6.0 0.00 0.90 0.09 51 1015.7
20191016140951 72 27 1.0 6.0 0.00 0.90 0.09 49 1015.7
20191016140451 71 124 2.0 4.0 0.00 0.90 0.09 50 1015.7
20191016135952 71 121 2.0 6.0 0.00 0.90 0.09 51 1015.7
20191016134950 70 265 1.0 2.0 0.00 0.90 0.09 52 1015.6
20191016134450 69 240 2.0 4.0 0.00 0.90 0.09 52 1015.6
20191016133949 69 210 3.0 7.0 0.00 0.90 0.09 53 1015.6
20191016133450 69 208 3.0 7.0 0.00 0.90 0.09 54 1015.6
20191016132949 70 263 2.0 8.0 0.00 0.90 0.09 52 1015.6
20191016131949 69 191 2.0 6.0 0.00 0.90 0.09 54 1015.5
20191016131448 69 256 2.0 4.0 0.00 0.90 0.09 54 1015.5
20191016130948 69 304 2.0 6.0 0.00 0.90 0.09 55 1015.5
20191016130448 68 233 3.0 8.0 0.00 0.90 0.09 55 1015.4
20191016125947 68 256 4.0 8.0 0.00 0.90 0.09 56 1015.4
20191016125447 68 230 3.0 9.0 0.00 0.90 0.09 53 1015.4
20191016124947 68 322 3.0 7.0 0.00 0.90 0.09 55 1015.6
20191016124446 68 206 3.0 7.0 0.00 0.90 0.09 56 1015.6
20191016123946 68 232 3.0 6.0 0.00 0.90 0.09 56 1015.6
20191016123446 67 250 4.0 7.0 0.00 0.90 0.09 56 1015.6
20191016122946 67 258 3.0 8.0 0.00 0.90 0.09 57 1015.6
20191016121945 67 217 4.0 8.0 0.00 0.90 0.09 57 1015.9
20191016121445 67 298 5.0 8.0 0.00 0.90 0.09 57 1015.9
20191016120944 66 224 5.0 10.0 0.00 0.90 0.09 56 1015.9
20191016115944 66 216 5.0 7.0 0.00 0.90 0.09 58 1016.1
20191016115445 66 244 5.0 10.0 0.00 0.90 0.09 58 1016.1
20191016114943 66 241 4.0 8.0 0.00 0.90 0.09 58 1016.2
20191016114444 66 237 4.0 8.0 0.00 0.90 0.09 58 1016.2
20191016113944 66 219 5.0 8.0 0.00 0.90 0.09 58 1016.2
20191016113442 66 240 5.0 11.0 0.00 0.90 0.09 60 1016.3
20191016112942 66 285 5.0 8.0 0.00 0.90 0.09 60 1016.3
20191016112442 65 244 5.0 13.0 0.00 0.90 0.09 60 1016.3
20191016111942 65 237 4.0 8.0 0.00 0.90 0.09 61 1016.5
20191016111441 65 309 4.0 6.0 0.00 0.90 0.09 62 1016.5
20191016110441 64 119 5.0 8.0 0.00 0.90 0.09 61 1016.7
20191016105940 64 220 5.0 9.0 0.00 0.90 0.09 62 1016.7
20191016105441 64 243 5.0 14.0 0.00 0.90 0.09 62 1016.7
20191016104940 65 234 4.0 14.0 0.00 0.90 0.09 61 1016.8
20191016104439 65 178 4.0 10.0 0.00 0.90 0.09 63 1016.8
20191016103939 64 234 3.0 7.0 0.00 0.90 0.09 63 1016.8
20191016103439 64 285 3.0 8.0 0.00 0.90 0.09 64 1016.9
20191016102941 64 248 4.0 8.0 0.00 0.90 0.09 64 1016.9
20191016102438 64 333 4.0 8.0 0.00 0.90 0.09 64 1016.9
20191016101938 63 309 3.0 8.0 0.00 0.90 0.09 63 1016.9
20191016101438 63 350 3.0 9.0 0.00 0.90 0.09 63 1016.9
20191016100938 63 277 3.0 9.0 0.00 0.90 0.09 64 1016.9
20191016100438 63 274 3.0 7.0 0.00 0.90 0.09 64 1016.9
20191016095937 63 3 3.0 6.0 0.00 0.90 0.09 68 1016.9
20191016095437 62 220 3.0 6.0 0.00 0.90 0.09 68 1016.9
20191016094936 62 215 3.0 7.0 0.00 0.90 0.09 70 1017.0
20191016094436 62 329 4.0 7.0 0.00 0.90 0.09 69 1017.0
20191016093936 61 257 5.0 9.0 0.00 0.90 0.09 71 1017.0
20191016093436 61 210 5.0 8.0 0.00 0.90 0.09 69 1017.1
20191016092935 61 210 4.0 13.0 0.00 0.90 0.09 70 1017.1
20191016092435 61 244 3.0 7.0 0.00 0.90 0.09 72 1017.1
20191016091936 61 224 3.0 8.0 0.00 0.90 0.09 72 1017.0
20191016091435 60 254 4.0 10.0 0.00 0.90 0.09 73 1017.0
20191016090934 60 278 4.0 7.0 0.00 0.90 0.09 74 1017.0
20191016090434 60 217 5.0 9.0 0.00 0.90 0.09 76 1017.1
20191016085934 60 280 5.0 9.0 0.00 0.90 0.09 77 1017.1
20191016085433 60 263 5.0 9.0 0.00 0.90 0.09 77 1017.1
20191016084933 60 226 4.0 8.0 0.00 0.90 0.09 77 1017.0
20191016084433 60 217 4.0 9.0 0.00 0.90 0.09 77 1017.0
20191016083932 59 260 3.0 9.0 0.00 0.90 0.09 77 1017.0
20191016083432 59 335 3.0 9.0 0.00 0.90 0.09 77 1017.0
20191016082932 59 233 3.0 7.0 0.00 0.90 0.09 80 1017.0
20191016082432 59 260 4.0 8.0 0.00 0.90 0.09 80 1017.0
20191016081931 58 330 4.0 9.0 0.00 0.90 0.09 81 1016.9
20191016081431 59 206 4.0 10.0 0.00 0.90 0.09 81 1016.9
20191016075930 58 265 5.0 6.0 0.00 0.90 0.09 82 1016.8
20191016075430 58 191 4.0 13.0 0.00 0.90 0.09 80 1016.8
20191016074930 57 272 4.0 10.0 0.00 0.90 0.09 83 1017.0
20191016074431 57 258 3.0 8.0 0.00 0.90 0.09 84 1017.0
20191016073930 57 292 3.0 6.0 0.00 0.90 0.09 87 1017.0
20191016073429 57 323 3.0 8.0 0.00 0.90 0.09 88 1016.8
20191016072928 56 336 2.0 7.0 0.00 0.90 0.09 89 1016.8
20191016072428 56 230 3.0 7.0 0.00 0.90 0.09 91 1016.8
20191016071928 56 213 3.0 7.0 0.00 0.90 0.09 92 1016.6
20191016070927 56 160 0.0 4.0 0.00 0.90 0.09 99 1016.6
20191016070427 56 195 0.0 2.0 0.00 0.90 0.09 100 1016.5
20191016065927 55 282 0.0 1.0 0.00 0.90 0.09 100 1016.5
20191016065426 55 282 0.0 0.0 0.00 0.90 0.09 100 1016.5
20191016064927 55 282 0.0 1.0 0.00 0.90 0.09 100 1016.1
20191016064426 55 282 0.0 1.0 0.00 0.90 0.09 100 1016.1
20191016063425 56 28 2.0 6.0 0.00 0.90 0.09 100 1015.9
20191016062925 54 328 1.0 4.0 0.00 0.90 0.09 100 1015.9
20191016062425 54 0 1.0 4.0 0.00 0.90 0.09 100 1015.9
20191016061924 55 62 0.0 2.0 0.00 0.90 0.09 100 1015.6
20191016061424 55 72 0.0 2.0 0.00 0.90 0.09 100 1015.6
20191016060924 55 72 0.0 2.0 0.00 0.90 0.09 100 1015.6
20191016060424 55 72 1.0 1.0 0.00 0.90 0.09 100 1015.3
20191016055923 56 66 0.0 2.0 0.00 0.90 0.09 100 1015.3
20191016054923 55 80 0.0 0.0 0.00 0.90 0.09 100 1015.1
20191016053922 55 80 0.0 1.0 0.00 0.90 0.09 100 1015.1
20191016053422 55 80 0.0 1.0 0.00 0.90 0.09 100 1015.0
20191016052922 55 80 0.0 1.0 0.00 0.90 0.09 100 1015.0
20191016052423 55 80 0.0 1.0 0.00 0.90 0.09 100 1015.0
20191016051921 56 80 0.0 1.0 0.00 0.90 0.09 100 1014.7
20191016051421 56 80 0.0 1.0 0.00 0.90 0.09 100 1014.7
20191016050421 56 80 0.0 0.0 0.00 0.90 0.09 100 1014.6
20191016045920 56 80 0.0 0.0 0.00 0.90 0.09 100 1014.6
20191016045420 56 80 0.0 0.0 0.00 0.90 0.09 100 1014.6
20191016044919 56 80 0.0 0.0 0.00 0.90 0.09 100 1014.5
20191016044419 56 80 0.0 1.0 0.00 0.90 0.09 100 1014.5
20191016043919 56 80 0.0 1.0 0.00 0.90 0.09 100 1014.5
20191016043418 56 80 0.0 1.0 0.00 0.90 0.09 100 1014.3
20191016042918 56 31 0.0 0.0 0.00 0.90 0.09 100 1014.3
20191016042418 57 31 0.0 0.0 0.00 0.90 0.09 100 1014.3
20191016041918 57 31 0.0 0.0 0.00 0.90 0.09 100 1014.2
20191016040917 56 31 0.0 0.0 0.00 0.90 0.09 100 1014.2
20191016040417 56 31 1.0 2.0 0.00 0.90 0.09 100 1014.3
20191016035916 55 328 0.0 6.0 0.00 0.90 0.09 100 1014.3
20191016035416 56 171 0.0 1.0 0.00 0.90 0.09 100 1014.3
20191016034916 56 185 0.0 0.0 0.00 0.90 0.09 100 1014.0
20191016034416 56 185 0.0 2.0 0.00 0.90 0.09 100 1014.0
20191016033916 56 185 0.0 1.0 0.00 0.90 0.09 100 1014.0
20191016033416 55 292 0.0 2.0 0.00 0.90 0.09 100 1013.9
20191016032915 55 292 0.0 0.0 0.00 0.90 0.09 100 1013.9
20191016032414 55 292 0.0 0.0 0.00 0.90 0.09 100 1013.9
20191016031914 55 292 0.0 0.0 0.00 0.90 0.09 100 1013.8
20191016031414 55 292 0.0 0.0 0.00 0.90 0.09 100 1013.8
20191016030914 55 292 0.0 0.0 0.00 0.90 0.09 100 1013.8
20191016030413 55 292 0.0 1.0 0.00 0.90 0.09 100 1013.9
20191016025913 55 292 0.0 0.0 0.00 0.90 0.09 100 1013.9
20191016025413 55 292 0.0 0.0 0.00 0.90 0.09 100 1013.9
20191016024912 55 292 0.0 0.0 0.00 0.90 0.09 100 1013.4
20191016024412 55 292 0.0 1.0 0.00 0.90 0.09 100 1013.4
20191016023912 55 292 0.0 0.0 0.00 0.90 0.09 100 1013.4
20191016023412 55 292 0.0 1.0 0.00 0.90 0.09 100 1013.4
20191016022411 56 171 0.0 1.0 0.00 0.90 0.09 100 1013.4
20191016021911 56 171 0.0 0.0 0.00 0.90 0.09 100 1013.1
20191016021410 56 171 0.0 1.0 0.00 0.90 0.09 100 1013.1
20191016020910 56 171 1.0 2.0 0.00 0.90 0.09 100 1013.1
20191016020410 56 76 1.0 4.0 0.00 0.90 0.09 100 1013.0
20191016015910 55 330 0.0 1.0 0.00 0.90 0.09 100 1013.0
20191016015409 55 296 1.0 1.0 0.00 0.90 0.09 100 1013.0
20191016014909 55 232 1.0 4.0 0.00 0.90 0.09 100 1012.8
20191016014409 56 143 0.0 1.0 0.00 0.90 0.09 100 1012.8
20191016013908 56 143 0.0 1.0 0.00 0.90 0.09 100 1012.8
20191016013408 56 143 0.0 1.0 0.00 0.90 0.09 100 1013.0
20191016012908 56 143 0.0 1.0 0.00 0.90 0.09 100 1013.0
20191016012408 56 143 0.0 1.0 0.00 0.90 0.09 100 1013.0
20191016011907 56 160 0.0 1.0 0.00 0.90 0.09 100 1013.1
20191016011407 56 160 0.0 0.0 0.00 0.90 0.09 100 1013.1
20191016010907 56 160 0.0 0.0 0.00 0.90 0.09 100 1013.1
20191016010407 56 160 0.0 0.0 0.00 0.90 0.09 100 1013.3
20191016005906 56 160 0.0 0.0 0.00 0.90 0.09 100 1013.3
20191016005406 56 160 0.0 2.0 0.00 0.90 0.09 100 1013.3
20191016004906 57 165 0.0 2.0 0.00 0.90 0.09 100 1013.3
20191016004405 56 340 0.0 0.0 0.00 0.90 0.09 100 1013.3
20191016003405 56 340 0.0 1.0 0.00 0.90 0.09 100 1013.3
20191016002404 58 76 0.0 1.0 0.00 0.90 0.09 100 1013.3
20191016001904 58 76 0.0 0.0 0.00 0.90 0.09 100 1013.2